When you browse on this site, cookies collect data to enhance your experience and personalize the content and advertising you see.
Visit our Privacy Policy to learn more. By continuing to use the site, you agree to this use of cookies and data.
  • en France
  • Liste des pays
  • À 7 jours
  • Température de l'eau
  • Carte météo
  • Widgets météo
  • user-avatar
    Se connecter

    Météo par heure à Kribi

    Ce jour, 4 Juin, Jeudi

    Heure Température Précipitation Vent Pression Humidité
    00:00 +27°C° 0.3 mm 3 m/s 758 mmHg 94%
    01:00 +26°C° 0 mm 2 m/s 758 mmHg 94%
    02:00 +26°C° 0 mm 2 m/s 757 mmHg 95%
    03:00 +26°C° 0 mm 2 m/s 757 mmHg 95%
    04:00 +26°C° 0 mm 2 m/s 757 mmHg 96%
    05:00 +26°C° 0.4 mm 2 m/s 757 mmHg 95%
    06:00 +26°C° 0.4 mm 2 m/s 758 mmHg 95%
    07:00 +27°C° 0.4 mm 2 m/s 758 mmHg 95%
    08:00 +28°C° 0.5 mm 1 m/s 759 mmHg 87%
    09:00 +30°C° 0.5 mm 1 m/s 759 mmHg 78%
    10:00 +32°C° 0.5 mm 1 m/s 759 mmHg 70%
    11:00 +32°C° 0.7 mm 2 m/s 759 mmHg 74%
    12:00 +31°C° 0.7 mm 2 m/s 758 mmHg 77%
    13:00 +31°C° 0.7 mm 3 m/s 758 mmHg 81%
    14:00 +32°C° 0.3 mm 4 m/s 757 mmHg 82%
    15:00 +30°C° 0.3 mm 4 m/s 756 mmHg 82%
    16:00 +30°C° 0.3 mm 4 m/s 755 mmHg 83%
    17:00 +29°C° 0.3 mm 4 m/s 756 mmHg 87%
    18:00 +28°C° 0.3 mm 4 m/s 757 mmHg 91%
    19:00 +27°C° 0.3 mm 4 m/s 758 mmHg 94%
    20:00 +27°C° 0.6 mm 4 m/s 758 mmHg 95%
    21:00 +27°C° 0.6 mm 3 m/s 758 mmHg 96%
    22:00 +27°C° 0.6 mm 3 m/s 759 mmHg 97%
    23:00 +26°C° 0.2 mm 3 m/s 759 mmHg 97%

    Demain, 5 Juin, Vendredi

    Heure Température Précipitation Vent Pression Humidité
    00:00 +26°C° 0.2 mm 3 m/s 759 mmHg 97%
    01:00 +26°C° 0.2 mm 3 m/s 759 mmHg 97%
    02:00 +26°C° 1.5 mm 3 m/s 758 mmHg 98%
    03:00 +26°C° 1.5 mm 3 m/s 758 mmHg 98%
    04:00 +26°C° 1.5 mm 3 m/s 758 mmHg 98%
    05:00 +26°C° 1.1 mm 3 m/s 758 mmHg 98%
    06:00 +26°C° 1.1 mm 3 m/s 759 mmHg 97%
    07:00 +26°C° 1.1 mm 2 m/s 759 mmHg 96%
    08:00 +28°C° 0.2 mm 2 m/s 759 mmHg 90%
    09:00 +29°C° 0.2 mm 1 m/s 759 mmHg 84%
    10:00 +31°C° 0.2 mm 1 m/s 759 mmHg 78%
    11:00 +31°C° 0.6 mm 2 m/s 759 mmHg 80%
    12:00 +31°C° 0.6 mm 2 m/s 759 mmHg 82%
    13:00 +31°C° 0.6 mm 3 m/s 758 mmHg 84%
    14:00 +30°C° 1.4 mm 3 m/s 758 mmHg 87%
    15:00 +29°C° 1.4 mm 4 m/s 757 mmHg 90%
    16:00 +28°C° 1.4 mm 4 m/s 757 mmHg 93%
    17:00 +27°C° 1.1 mm 4 m/s 758 mmHg 95%
    18:00 +27°C° 1.1 mm 4 m/s 758 mmHg 96%
    19:00 +26°C° 1.1 mm 4 m/s 759 mmHg 97%
    20:00 +26°C° 0 mm 3 m/s 759 mmHg 97%
    21:00 +26°C° 0 mm 3 m/s 759 mmHg 98%
    22:00 +26°C° 0 mm 3 m/s 759 mmHg 98%
    23:00 +26°C° 0 mm 2 m/s 759 mmHg 98%

    Après-demain, 6 Juin, Samedi

    Heure Température Précipitation Vent Pression Humidité
    00:00 +25°C° 0 mm 2 m/s 759 mmHg 98%
    01:00 +25°C° 0 mm 2 m/s 759 mmHg 98%
    02:00 +25°C° 0 mm 1 m/s 759 mmHg 98%
    03:00 +25°C° 0 mm 1 m/s 758 mmHg 99%
    04:00 +25°C° 0 mm 1 m/s 758 mmHg 99%
    05:00 +25°C° 0 mm 1 m/s 759 mmHg 98%
    06:00 +25°C° 0 mm 1 m/s 759 mmHg 97%
    07:00 +25°C° 0 mm 2 m/s 760 mmHg 96%
    08:00 +28°C° 0 mm 1 m/s 760 mmHg 88%
    09:00 +30°C° 0 mm 1 m/s 760 mmHg 79%
    10:00 +32°C° 0 mm 1 m/s 760 mmHg 71%
    11:00 +32°C° 0 mm 1 m/s 760 mmHg 69%
    12:00 +32°C° 0 mm 2 m/s 759 mmHg 67%
    13:00 +34°C° 0 mm 2 m/s 758 mmHg 65%
    14:00 +32°C° 0 mm 2 m/s 758 mmHg 67%
    15:00 +33°C° 0 mm 3 m/s 758 mmHg 69%
    16:00 +31°C° 0 mm 3 m/s 757 mmHg 71%
    17:00 +30°C° 0.1 mm 3 m/s 757 mmHg 77%
    18:00 +29°C° 0.1 mm 3 m/s 758 mmHg 83%
    19:00 +27°C° 0.1 mm 3 m/s 758 mmHg 89%
    20:00 +27°C° 0.1 mm 3 m/s 758 mmHg 91%
    21:00 +27°C° 0.1 mm 3 m/s 759 mmHg 93%
    22:00 +26°C° 0.1 mm 3 m/s 759 mmHg 95%
    23:00 +26°C° 0 mm 3 m/s 759 mmHg 95%

    7 Juin, Dimanche

    Heure Température Précipitation Vent Pression Humidité
    00:00 +26°C° 0 mm 3 m/s 759 mmHg 96%
    01:00 +26°C° 0 mm 2 m/s 758 mmHg 96%
    02:00 +26°C° 0.1 mm 2 m/s 758 mmHg 96%
    03:00 +26°C° 0.1 mm 3 m/s 758 mmHg 96%
    04:00 +26°C° 0.1 mm 3 m/s 758 mmHg 96%
    05:00 +26°C° 0 mm 3 m/s 759 mmHg 95%
    06:00 +26°C° 0 mm 2 m/s 759 mmHg 94%
    07:00 +26°C° 0 mm 2 m/s 759 mmHg 94%
    08:00 +28°C° 0 mm 2 m/s 760 mmHg 85%
    09:00 +30°C° 0 mm 2 m/s 760 mmHg 76%
    10:00 +32°C° 0 mm 2 m/s 760 mmHg 67%
    11:00 +32°C° 0.3 mm 2 m/s 760 mmHg 70%
    12:00 +31°C° 0.3 mm 3 m/s 759 mmHg 74%
    13:00 +32°C° 0.3 mm 4 m/s 758 mmHg 78%
    14:00 +32°C° 0.3 mm 4 m/s 758 mmHg 80%
    15:00 +30°C° 0.3 mm 4 m/s 757 mmHg 82%
    16:00 +30°C° 0.3 mm 4 m/s 757 mmHg 84%
    17:00 +29°C° 0 mm 4 m/s 757 mmHg 87%
    18:00 +28°C° 0 mm 4 m/s 758 mmHg 91%
    19:00 +27°C° 0 mm 4 m/s 758 mmHg 94%
    20:00 +27°C° 0.3 mm 4 m/s 758 mmHg 95%
    21:00 +27°C° 0.3 mm 4 m/s 759 mmHg 95%
    22:00 +27°C° 0.3 mm 4 m/s 759 mmHg 96%
    23:00 +27°C° 0.4 mm 4 m/s 759 mmHg 97%

    8 Juin, Lundi

    Heure Température Précipitation Vent Pression Humidité
    00:00 +26°C° 0.4 mm 4 m/s 758 mmHg 97%
    01:00 +26°C° 0.4 mm 4 m/s 758 mmHg 98%
    02:00 +26°C° 0.6 mm 3 m/s 758 mmHg 98%
    03:00 +26°C° 0.6 mm 3 m/s 758 mmHg 98%
    04:00 +25°C° 0.6 mm 3 m/s 757 mmHg 98%
    05:00 +26°C° 0.2 mm 3 m/s 758 mmHg 98%
    06:00 +26°C° 0.2 mm 3 m/s 758 mmHg 97%
    07:00 +26°C° 0.2 mm 3 m/s 758 mmHg 96%
    08:00 +27°C° 0.7 mm 3 m/s 758 mmHg 92%
    09:00 +28°C° 0.7 mm 3 m/s 759 mmHg 87%
    10:00 +30°C° 0.7 mm 3 m/s 759 mmHg 83%
    11:00 +30°C° 0.4 mm 3 m/s 759 mmHg 82%
    12:00 +30°C° 0.4 mm 3 m/s 758 mmHg 81%
    13:00 +32°C° 0.4 mm 4 m/s 757 mmHg 80%
    14:00 +32°C° 0.2 mm 4 m/s 757 mmHg 78%
    15:00 +30°C° 0.2 mm 4 m/s 756 mmHg 77%
    16:00 +30°C° 0.2 mm 4 m/s 756 mmHg 76%
    17:00 +29°C° 0 mm 4 m/s 756 mmHg 80%
    18:00 +28°C° 0 mm 4 m/s 757 mmHg 85%
    19:00 +27°C° 0 mm 4 m/s 757 mmHg 90%
    20:00 +27°C° 0 mm 4 m/s 758 mmHg 91%
    21:00 +26°C° 0 mm 4 m/s 758 mmHg 92%
    22:00 +26°C° 0 mm 4 m/s 758 mmHg 94%
    23:00 +26°C° 0 mm 4 m/s 758 mmHg 93%

    9 Juin, Mardi

    Heure Température Précipitation Vent Pression Humidité
    00:00 +26°C° 0 mm 4 m/s 758 mmHg 93%
    01:00 +26°C° 0 mm 3 m/s 758 mmHg 92%
    02:00 +26°C° 0.1 mm 3 m/s 757 mmHg 92%
    03:00 +26°C° 0.1 mm 3 m/s 757 mmHg 92%
    04:00 +26°C° 0.1 mm 3 m/s 757 mmHg 92%
    05:00 +26°C° 0.1 mm 3 m/s 758 mmHg 93%
    06:00 +26°C° 0.1 mm 3 m/s 758 mmHg 93%
    07:00 +26°C° 0.1 mm 2 m/s 758 mmHg 93%
    08:00 +27°C° 0.1 mm 2 m/s 758 mmHg 86%
    09:00 +29°C° 0.1 mm 2 m/s 759 mmHg 79%
    10:00 +30°C° 0.1 mm 3 m/s 759 mmHg 72%
    11:00 +31°C° 0.4 mm 3 m/s 759 mmHg 72%
    12:00 +32°C° 0.4 mm 4 m/s 758 mmHg 73%
    13:00 +32°C° 0.4 mm 5 m/s 757 mmHg 73%
    14:00 +30°C° 0.4 mm 5 m/s 757 mmHg 75%
    15:00 +30°C° 0.4 mm 5 m/s 757 mmHg 78%
    16:00 +29°C° 0.4 mm 5 m/s 757 mmHg 80%
    17:00 +28°C° 0 mm 4 m/s 757 mmHg 83%
    18:00 +27°C° 0 mm 4 m/s 757 mmHg 86%
    19:00 +27°C° 0 mm 4 m/s 757 mmHg 89%
    20:00 +26°C° 0 mm 4 m/s 758 mmHg 90%
    21:00 +26°C° 0 mm 4 m/s 758 mmHg 91%
    22:00 +26°C° 0 mm 4 m/s 758 mmHg 92%
    23:00 +26°C° 0.1 mm 4 m/s 758 mmHg 92%
    Voir plus